TimeAKDT,TemperatureF,Dew PointF,Humidity,Sea Level PressureIn,VisibilityMPH,Wind Direction,Wind SpeedMPH,Gust SpeedMPH,PrecipitationIn,Events,Conditions,WindDirDegrees,DateUTC
12:16 AM,39.2,30.2,70,29.87,10.0,WNW,3.5,-,N/A,,Overcast,290,2012-10-17 08:16:00
12:36 AM,37.4,30.2,75,29.87,10.0,East,4.6,-,N/A,,Scattered Clouds,90,2012-10-17 08:36:00
12:56 AM,35.6,30.2,81,29.88,10.0,SE,4.6,-,N/A,,Mostly Cloudy,130,2012-10-17 08:56:00
1:16 AM,37.4,32.0,81,29.89,10.0,South,6.9,-,N/A,,Mostly Cloudy,190,2012-10-17 09:16:00
1:36 AM,37.4,30.2,75,29.90,10.0,South,6.9,-,N/A,,Overcast,190,2012-10-17 09:36:00
1:56 AM,37.4,30.2,75,29.91,10.0,SE,4.6,-,N/A,,Overcast,140,2012-10-17 09:56:00
2:16 AM,35.6,30.2,81,29.91,10.0,East,5.8,-,N/A,,Scattered Clouds,80,2012-10-17 10:16:00
2:36 AM,35.6,30.2,81,29.91,10.0,Calm,Calm,-,N/A,,Partly Cloudy,0,2012-10-17 10:36:00
2:56 AM,35.6,30.2,81,29.91,10.0,ESE,3.5,-,N/A,,Clear,110,2012-10-17 10:56:00
3:16 AM,33.8,28.4,81,29.92,10.0,Calm,Calm,-,N/A,,Scattered Clouds,0,2012-10-17 11:16:00
3:36 AM,35.6,30.2,81,29.91,10.0,Calm,Calm,-,N/A,,Mostly Cloudy,0,2012-10-17 11:36:00
3:56 AM,35.6,32.0,87,29.91,10.0,Calm,Calm,-,N/A,,Partly Cloudy,0,2012-10-17 11:56:00
4:16 AM,35.6,30.2,81,29.91,10.0,East,4.6,-,N/A,,Partly Cloudy,90,2012-10-17 12:16:00
4:36 AM,37.4,30.2,75,29.90,10.0,East,3.5,-,N/A,,Mostly Cloudy,100,2012-10-17 12:36:00
4:56 AM,37.4,30.2,75,29.90,10.0,East,3.5,-,N/A,,Mostly Cloudy,90,2012-10-17 12:56:00
5:16 AM,37.4,30.2,75,29.90,10.0,SE,4.6,-,N/A,,Mostly Cloudy,140,2012-10-17 13:16:00
5:36 AM,39.2,32.0,75,29.89,10.0,ESE,9.2,-,N/A,,Overcast,120,2012-10-17 13:36:00
5:56 AM,39.2,32.0,75,29.88,10.0,SE,6.9,-,N/A,,Overcast,130,2012-10-17 13:56:00
6:16 AM,37.4,30.2,75,29.87,10.0,North,4.6,-,N/A,,Mostly Cloudy,360,2012-10-17 14:16:00
6:36 AM,35.6,30.2,81,29.87,10.0,Calm,Calm,-,N/A,,Overcast,0,2012-10-17 14:36:00
6:56 AM,35.6,30.2,81,29.86,10.0,North,3.5,-,N/A,,Overcast,350,2012-10-17 14:56:00
7:16 AM,37.4,30.2,75,29.85,10.0,East,3.5,-,N/A,,Overcast,100,2012-10-17 15:16:00
7:36 AM,39.2,32.0,75,29.84,10.0,SE,8.1,-,N/A,,Overcast,140,2012-10-17 15:36:00
7:56 AM,41.0,32.0,70,29.83,10.0,ENE,4.6,-,N/A,,Overcast,70,2012-10-17 15:56:00
8:16 AM,39.2,30.2,70,29.82,10.0,East,3.5,-,N/A,,Overcast,90,2012-10-17 16:16:00
8:36 AM,41.0,30.2,65,29.81,10.0,East,4.6,-,N/A,,Overcast,90,2012-10-17 16:36:00
8:56 AM,42.8,30.2,61,29.80,10.0,SE,8.1,-,N/A,,Overcast,140,2012-10-17 16:56:00
9:16 AM,42.8,30.2,61,29.79,10.0,ENE,4.6,-,N/A,,Overcast,70,2012-10-17 17:16:00
9:36 AM,42.8,30.2,61,29.78,10.0,East,4.6,-,N/A,,Mostly Cloudy,100,2012-10-17 17:36:00
9:56 AM,42.8,30.2,61,29.76,10.0,East,4.6,-,N/A,,Mostly Cloudy,100,2012-10-17 17:56:00
10:16 AM,42.8,30.2,61,29.75,10.0,East,5.8,-,N/A,,Overcast,100,2012-10-17 18:16:00
10:36 AM,44.6,30.2,57,29.75,10.0,East,6.9,-,N/A,,Overcast,100,2012-10-17 18:36:00
10:56 AM,44.6,30.2,57,29.74,10.0,East,6.9,-,N/A,,Overcast,100,2012-10-17 18:56:00
11:16 AM,44.6,30.2,57,29.73,10.0,East,9.2,-,N/A,,Overcast,100,2012-10-17 19:16:00
11:36 AM,44.6,30.2,57,29.71,10.0,East,5.8,-,N/A,,Overcast,80,2012-10-17 19:36:00
11:56 AM,42.8,32.0,66,29.69,10.0,East,4.6,-,N/A,,Overcast,90,2012-10-17 19:56:00
12:16 PM,42.8,32.0,66,29.67,10.0,ENE,4.6,-,N/A,,Overcast,60,2012-10-17 20:16:00
12:36 PM,42.8,32.0,66,29.66,10.0,East,9.2,-,N/A,,Overcast,80,2012-10-17 20:36:00
12:56 PM,42.8,33.8,70,29.64,10.0,ENE,3.5,-,N/A,,Overcast,70,2012-10-17 20:56:00
1:16 PM,41.0,33.8,76,29.62,10.0,NNW,3.5,-,N/A,,Overcast,330,2012-10-17 21:16:00
2:16 PM,42.8,33.8,70,29.59,10.0,ESE,12.7,18.4,N/A,,Overcast,110,2012-10-17 22:16:00
2:36 PM,42.8,33.8,70,29.59,10.0,East,5.8,20.7,N/A,,Overcast,100,2012-10-17 22:36:00
2:56 PM,41.0,33.8,76,29.59,10.0,SE,5.8,-,N/A,,Overcast,130,2012-10-17 22:56:00
3:16 PM,41.0,33.8,76,29.59,8.0,Calm,Calm,-,N/A,,Overcast,0,2012-10-17 23:16:00
3:36 PM,41.0,33.8,76,29.59,10.0,SSW,3.5,-,N/A,,Overcast,200,2012-10-17 23:36:00
3:56 PM,39.2,33.8,81,29.58,10.0,Calm,Calm,-,N/A,,Overcast,0,2012-10-17 23:56:00
4:16 PM,37.4,32.0,81,29.58,10.0,NNW,6.9,-,N/A,,Overcast,340,2012-10-18 00:16:00
4:36 PM,37.4,33.8,87,29.57,10.0,NW,3.5,-,N/A,,Overcast,310,2012-10-18 00:36:00
4:56 PM,35.6,30.2,81,29.57,10.0,NW,6.9,-,N/A,,Overcast,320,2012-10-18 00:56:00
5:16 PM,37.4,32.0,81,29.58,10.0,WSW,3.5,-,N/A,,Overcast,250,2012-10-18 01:16:00
5:36 PM,39.2,35.6,87,29.57,10.0,SSE,10.4,-,N/A,,Overcast,160,2012-10-18 01:36:00
5:56 PM,41.0,33.8,76,29.58,10.0,SSE,10.4,-,N/A,,Overcast,150,2012-10-18 01:56:00
6:16 PM,41.0,33.8,76,29.58,10.0,SSE,11.5,-,N/A,,Overcast,150,2012-10-18 02:16:00
6:36 PM,39.2,33.8,81,29.58,10.0,SSE,9.2,-,N/A,,Overcast,150,2012-10-18 02:36:00
6:56 PM,39.2,33.8,81,29.59,10.0,SSE,11.5,-,N/A,,Overcast,150,2012-10-18 02:56:00
7:16 PM,39.2,33.8,81,29.60,10.0,South,5.8,-,N/A,,Overcast,180,2012-10-18 03:16:00
7:36 PM,39.2,33.8,81,29.60,10.0,South,4.6,-,N/A,,Overcast,190,2012-10-18 03:36:00
7:56 PM,37.4,33.8,87,29.61,10.0,Calm,Calm,-,N/A,,Overcast,0,2012-10-18 03:56:00
8:16 PM,37.4,33.8,87,29.62,10.0,SW,4.6,-,N/A,,Overcast,230,2012-10-18 04:16:00
8:36 PM,39.2,33.8,81,29.63,10.0,SSW,8.1,-,N/A,,Overcast,210,2012-10-18 04:36:00
8:56 PM,37.4,32.0,81,29.63,10.0,SSW,5.8,-,N/A,,Mostly Cloudy,210,2012-10-18 04:56:00
9:16 PM,37.4,30.2,75,29.63,10.0,Calm,Calm,-,N/A,,Overcast,0,2012-10-18 05:16:00
9:36 PM,37.4,30.2,75,29.63,10.0,NE,3.5,-,N/A,,Mostly Cloudy,50,2012-10-18 05:36:00
9:56 PM,35.6,30.2,81,29.64,10.0,Calm,Calm,-,N/A,,Mostly Cloudy,0,2012-10-18 05:56:00
10:16 PM,35.6,30.2,81,29.64,10.0,ESE,3.5,-,N/A,,Mostly Cloudy,120,2012-10-18 06:16:00
10:36 PM,35.6,30.2,81,29.64,10.0,Calm,Calm,-,N/A,,Partly Cloudy,0,2012-10-18 06:36:00
10:56 PM,33.8,28.4,81,29.65,10.0,Calm,Calm,-,N/A,,Mostly Cloudy,0,2012-10-18 06:56:00
11:16 PM,33.8,30.2,87,29.66,10.0,Calm,Calm,-,N/A,,Overcast,0,2012-10-18 07:16:00
11:36 PM,35.6,30.2,81,29.66,10.0,Calm,Calm,-,N/A,,Overcast,0,2012-10-18 07:36:00
11:56 PM,35.6,30.2,81,29.67,10.0,Calm,Calm,-,N/A,,Overcast,0,2012-10-18 07:56:00